Location: Aastrup
(56.2495°N, 10.3185°E)
Time: 09:36:40
(UTC+00:00)

Daily predictions for brighter satellites

Satellite Brightness Start Highest point End
(mag) Time Altitude Azimuth Time Altitude Azimuth Time Altitude Azimuth
Cosmos 2123 Rocket 4.1 19:36:03 10° N 19:42:17 75° ENE 19:48:32 10° SSE
IRIDIUM 114 4.5 19:38:14 10° S 19:43:28 86° W 19:48:44 10° N
Cosmos 2360 Rocket 3.4 19:40:16 10° NNW 19:45:28 34° NE 19:50:37 10° E
Cosmos 468 Rocket 4.4 19:40:21 10° NNW 19:45:37 57° NE 19:50:50 10° SE
Resurs 1-3 4.4 19:42:54 10° S 19:47:12 54° W 19:51:33 10° NNW
SPOT 5 3.6 19:43:39 10° ESE 19:47:32 33° ENE 19:51:30 10° N
Cosmos 44 3.7 19:44:00 10° NW 19:48:43 57° NNE 19:53:42 10° ESE
Cosmos 1862 3.8 19:46:27 10° SSW 19:50:30 67° WNW 19:54:34 10° N
ERBS 2.2 19:48:25 10° WSW 19:51:46 87° SSE 19:55:05 10° ENE
ATLAS 5 CENTAUR R/B 4.4 19:48:37 10° WNW 19:52:41 20° WSW 19:57:08 10° SSW
Cosmos 2239 Rocket 4.5 19:46:35 10° S 19:52:42 77° E 19:58:54 10° NNE
Cosmos 1805 Rocket 3.9 19:48:58 10° SSW 19:53:24 75° WNW 19:57:54 10° N
Cosmos 1980 Rocket 2.6 19:48:58 10° NW 19:54:36 64° WSW 20:00:10 10° SSE
Genesis I 4.4 19:52:38 10° WNW 19:56:11 34° SW 19:59:42 10° SSE
COSMOS 2428 4.5 19:51:56 10° NNW 19:56:36 25° NNE 20:01:16 10° ENE
CZ-2C R/B 3.7 19:52:19 10° NNE 19:57:00 82° ESE 20:01:33 10° SSW
Cosmos 1703 Rocket 4.3 19:54:00 10° N 19:58:05 37° ENE 20:02:07 10° SE
Cosmos 1605 Rocket 4.3 19:53:12 10° SSE 19:58:57 45° E 20:04:42 10° NNE
ATLAS 5 CENTAUR R/B 1.5 19:57:19 10° NW 19:59:21 53° NNE 20:02:59 10° ESE
USA 234 3.4 19:53:13 10° ESE 19:59:44 69° SSW 20:06:18 10° WNW
Cosmos 1954 Rocket 4.4 19:58:20 10° S 20:03:21 44° ESE 20:08:23 10° NE
Cosmos 1437 Rocket 3.4 20:01:01 10° N 20:04:37 38° ENE 20:08:06 11° SE
Spot 2 Rocket 3.5 20:00:57 10° SSE 20:06:04 85° ENE 20:11:12 10° NNW
Okean 1-7 3.7 20:02:09 10° N 20:06:15 39° ENE 20:10:12 10° SE
Landsat 7 3.8 20:02:04 10° SSE 20:06:50 85° ENE 20:11:38 10° NNW
IGS 5A 3.5 20:02:46 10° SSE 20:06:55 86° ENE 20:11:06 10° NNW
Cosmos 1697 Rocket 4.2 20:03:38 10° NW 20:08:34 32° WSW 20:13:29 10° S
BREEZE-M DEB (TANK) 3.5 20:08:03 10° WSW 20:09:58 18° S 20:11:05 13° SSE
SWAS 4.4 20:07:15 10° SSW 20:11:33 73° SE 20:15:55 10° NE
Cosmos 2237 Rocket 4.4 20:07:38 10° NNW 20:11:49 20° NNE 20:15:59 10° ENE
Okean 1 3.5 20:08:13 10° N 20:12:14 58° ENE 20:16:12 10° SSE
Cosmos 1833 Rocket 2.7 20:06:37 10° SSW 20:12:15 84° ESE 20:17:56 10° NE
Cosmos 2242 Rocket 3.7 20:08:08 10° N 20:12:35 62° ENE 20:16:57 10° SSE
Cosmos 1633 Rocket 3.0 20:08:14 10° S 20:12:39 79° E 20:17:06 10° NNE
Cosmos 405 Rocket 3.5 20:09:40 10° SSE 20:12:59 31° E 20:16:21 10° NNE
Cosmos 407 Rocket 3.6 20:10:23 10° SSW 20:15:43 90° ESE 20:21:02 10° NNE
Cosmos 2333 Rocket 3.7 20:10:43 10° NNW 20:15:50 31° NNE 20:20:53 10° E
Cosmos 1190 Rocket 4.0 20:10:33 10° SSW 20:15:50 78° ESE 20:21:11 10° NNE
Meteor 1-19 Rocket 4.3 20:11:02 10° N 20:16:27 65° ENE 20:21:50 10° SSE
USA 238 DEB 4.1 20:10:49 10° S 20:16:54 39° ESE 20:23:14 10° ENE
USA 238 4.1 20:10:57 10° S 20:17:01 39° ESE 20:23:20 10° ENE
Cosmos 1515 3.9 20:22:31 10° N 20:26:20 57° ENE 20:29:33 14° SSE
Cosmos 1763 Rocket 3.6 20:21:33 10° NNW 20:26:56 90° ENE 20:31:50 12° SSE
Cosmos 921 Rocket 3.5 20:25:21 10° NNW 20:29:30 54° WSW 20:33:35 10° S
SL-4 R/B 2.6 20:26:30 10° SW 20:29:57 31° SSE 20:33:13 10° E
Meteor 1-4 Rocket 4.3 20:27:35 10° NNW 20:30:39 29° W 20:33:41 10° SSW
Cosmos 1140 Rocket 3.6 20:27:40 10° SSW 20:32:57 85° WNW 20:38:15 10° NNE
CENTAUR R/B 3.2 20:29:31 10° S 20:34:52 33° ESE 20:41:03 10° ENE
Cosmos 1470 Rocket 3.5 20:34:00 10° S 20:38:25 81° E 20:42:49 10° NNE
H-2A R/B 3.5 20:36:50 10° NNE 20:40:57 80° WNW 20:45:06 10° SSW
Meteor 2-4 Rocket 3.8 20:35:47 10° NNW 20:41:30 65° ENE 20:46:05 15° SSE
FALCON 9 DEB 3.8 20:41:24 10° SW 20:44:36 33° SSE 20:47:48 10° E
Resurs 01 Rocket 3.6 20:41:17 10° SSW 20:44:59 26° W 20:48:44 10° NW
Lacrosse 5 2.6 20:41:14 10° WNW 20:45:58 40° SW 20:49:36 16° SSE
Meteor 1-18 Rocket 4.4 20:43:20 10° NNW 20:48:57 73° W 20:54:17 11° S
Cosmos 1934 Rocket 4.5 20:45:14 10° SSW 20:51:34 65° WNW 20:57:56 10° N
SWARM A 4.2 20:48:56 10° N 20:52:17 70° E 20:54:32 19° SSE
SPOT 1/Viking Rocket 4.2 20:47:39 10° S 20:52:46 54° W 20:57:55 10° NNW
GP-B 3.9 20:48:33 10° N 20:52:53 52° W 20:57:12 10° SSW
Terra 1.8 20:52:17 16° SSE 20:56:07 85° ENE 21:00:55 10° NNW
SL-16 R/B 2.4 20:52:02 10° NW 20:57:41 66° WSW 21:02:09 16° SSE
Meteor 1-25 Rocket 4.3 20:54:45 10° SSW 21:00:21 82° WNW 21:06:03 10° NNE
Cosmos 1238 Rocket 2.5 20:57:45 10° SSW 21:00:41 62° WNW 21:03:42 10° N
USA 32 4.5 20:56:22 10° SSW 21:01:33 64° WNW 21:06:47 10° N
Cosmos 2219 Rocket 3.1 20:57:13 10° NNW 21:02:38 42° NE 21:07:36 12° ESE
SL-27 R/B 3.1 21:01:26 24° SSE 21:02:41 32° ESE 21:05:42 10° NE
Cosmos 2322 4.2 20:57:50 10° NNW 21:03:25 52° NE 21:07:56 15° ESE
USA 276 3.5 21:01:03 10° WSW 21:03:36 22° SSW 21:04:06 21° S
USA 267 3.3 20:58:07 10° ENE 21:04:32 53° SSE 21:10:54 10° SW
NOSS 3-2 (A) 3.4 21:03:28 10° SW 21:09:17 67° SE 21:16:05 10° NE
Cosmos 1850 Rocket 4.1 21:05:12 10° S 21:10:24 60° ESE 21:15:36 10° NNE
Cosmos 540 Rocket 3.5 21:06:21 10° NNW 21:11:33 78° WSW 21:15:09 20° SSE
Cosmos 2082 Rocket 2.6 21:06:28 10° SW 21:12:08 67° NW 21:17:49 10° NNE
Cosmos 676 Rocket 4.4 21:08:49 10° SW 21:14:08 67° WNW 21:19:30 10° NNE
CARTOSAT-1 4.4 21:10:27 13° S 21:14:09 46° W 21:18:21 10° NNW
Cosmos 1867 3.6 21:11:43 10° SW 21:17:11 87° NW 21:22:42 10° NE
NOSS 3-2 (C) 3.6 21:11:37 10° SSW 21:17:19 53° SE 21:23:53 10° NE
Cosmos 2322 Rocket 2.6 21:12:16 10° NW 21:17:52 58° WSW 21:21:53 19° S
Cosmos 1933 Rocket 4.0 21:15:02 10° SSW 21:19:25 62° WNW 21:23:52 10° N
Cosmos 2237 4.2 21:14:32 10° NW 21:20:17 81° WSW 21:24:08 22° SSE
ERS-1 Rocket 3.8 21:16:10 12° S 21:20:36 45° W 21:25:27 10° NNW
Lacrosse 4 Rocket 3.4 21:21:47 13° ESE 21:21:47 13° ESE 21:23:24 10° ENE
Cosmos 841 Rocket 3.7 21:16:31 10° NNW 21:21:43 65° WSW 21:25:15 21° S
SL-16 R/B 4.4 21:20:01 10° NNW 21:24:27 22° NNE 21:28:50 10° ENE
SPOT 5 3.6 21:22:09 14° SSW 21:25:35 42° W 21:29:48 10° NNW
ERBS 2.3 21:24:47 10° W 21:28:07 80° N 21:30:33 17° E
Tsikada Rocket 4.2 21:22:25 10° N 21:28:47 63° ENE 21:32:57 22° SSE
Cosmos 44 4.0 21:25:20 10° NW 21:29:55 42° SW 21:32:46 22° S
Cosmos 2360 Rocket 2.2 21:24:19 10° NW 21:30:01 77° WSW 21:33:38 23° SSE
Cosmos 1869 Rocket 3.5 21:27:02 19° S 21:30:09 80° E 21:34:39 10° NNE
Okean 3 3.5 21:30:35 10° NNW 21:34:53 77° W 21:37:20 25° S
Cosmos 1500 3.0 21:34:04 24° S 21:36:14 88° ESE 21:40:01 10° NNE
Cosmos 44 Rocket 3.6 21:31:48 10° NW 21:36:43 65° NE 21:40:26 18° ESE
COSMOS 2487 4.1 21:38:11 19° E 21:38:11 19° E 21:40:36 10° NE
Cosmos 1437 Rocket 4.5 21:37:32 10° NW 21:40:44 26° W 21:43:29 12° SW
Cosmos 1814 Rocket 4.4 21:36:20 10° NW 21:41:26 56° WSW 21:44:35 23° S
COSMOS 2428 3.1 21:36:19 10° NNW 21:42:02 61° NE 21:46:03 20° SE
Cosmos 1674 Rocket 3.8 21:38:58 10° N 21:43:15 56° ENE 21:45:18 29° SE
USA 234 4.2 21:39:52 19° S 21:43:32 32° SW 21:49:18 10° WNW
Okean 1-7 4.5 21:39:54 10° NNW 21:43:46 32° W 21:47:04 13° SSW
Cosmos 2100 Rocket 4.0 21:38:31 15° S 21:43:46 87° W 21:49:59 10° NNE
Cosmos 1741 Rocket 4.1 21:41:30 10° SSW 21:46:47 83° WNW 21:52:08 10° NNE
Cosmos 1666 2.8 21:46:13 34° SSE 21:47:33 56° E 21:51:16 10° NNE
Cosmos 405 Rocket 4.4 21:45:39 10° SW 21:48:59 31° WNW 21:52:23 10° N
ATLAS 3B R/B 3.0 21:48:52 21° S 21:52:47 41° ESE 21:58:55 10° NE
Cosmos 2173 Rocket 4.0 21:49:15 15° SSW 21:54:24 80° WNW 22:00:34 10° N
Iridium 4 Rocket 3.2 21:51:55 23° SSW 21:54:32 68° W 21:58:42 10° N
ALOS 2 3.2 21:53:11 26° SE 21:55:20 47° ENE 21:59:35 10° N
Meteor 1-11 Rocket 3.8 21:53:16 24° S 21:56:46 70° E 22:02:34 10° NNE
Cosmos 1743 4.0 21:56:20 25° ESE 21:57:12 27° E 22:00:33 10° NNE
Cosmos 2237 Rocket 3.2 21:52:03 10° NNW 21:57:25 41° NE 22:02:20 12° ESE
Cosmos 1271 Rocket 3.1 21:56:29 10° N 22:00:12 53° ENE 22:01:32 34° SE
Cosmos 2333 Rocket 2.2 21:55:03 10° NW 22:00:53 86° NE 22:04:15 26° SE
Cosmos 1725 Rocket 4.0 21:58:44 23° S 22:02:49 75° E 22:09:09 10° NNE
Cosmos 1733 Rocket 3.1 22:02:22 33° SSE 22:04:11 62° E 22:08:35 10° NNE
SL-08 R/B 4.4 22:03:28 24° S 22:07:21 80° E 22:13:30 10° NNE
USA 238 DEB 3.8 22:00:41 10° WSW 22:07:27 79° NW 22:14:33 10° NE
USA 238 3.8 22:00:48 10° WSW 22:07:33 80° NW 22:14:39 10° NE
Cosmos 1378 3.1 22:05:01 10° N 22:08:47 73° ENE 22:09:56 41° SSE
SL-4 R/B 2.2 22:05:34 10° WSW 22:08:50 39° SSW 22:08:50 39° SSW
Geosat 4.3 22:08:13 29° S 22:10:39 56° WSW 22:15:38 10° NW
Cosmos 1066 Rocket 4.3 22:05:19 10° NNW 22:11:04 75° W 22:14:09 28° S
Spot 4 3.9 22:08:59 31° S 22:11:20 77° WSW 22:16:12 10° NNW
Cosmos 1459 Rocket 4.4 22:06:54 14° SSW 22:12:24 65° WNW 22:18:47 10° N
Cosmos 2221 Rocket 4.4 22:08:22 10° NNW 22:12:38 44° W 22:14:58 24° SSW
Cosmos 2016 Rocket 4.1 22:08:56 20° SSW 22:13:30 84° WNW 22:19:57 10° N
Cosmos 1242 Rocket 2.8 22:11:42 10° NNW 22:15:16 58° W 22:16:23 38° SSW
FALCON 9 DEB 3.3 22:17:53 10° WSW 22:21:03 49° SSW 22:21:03 49° SSW
Cosmos 1536 2.8 22:21:12 34° SSW 22:22:51 79° WNW 22:26:51 10° N
Cosmos 2084 Rocket 3.3 22:19:23 12° SW 22:23:18 82° SE 22:27:41 10° NE
CENTAUR R/B 2.7 22:18:29 10° SW 22:24:49 87° NW 22:32:27 10° NE
Cosmos 1356 3.7 22:24:33 36° SW 22:25:44 63° WNW 22:29:09 10° N
Okean 2 3.7 22:23:32 10° N 22:27:38 57° ENE 22:29:02 36° SE
Lacrosse 5 4.0 22:26:00 10° WSW 22:27:49 12° WSW 22:28:46 11° SW
Cosmos 2061 Rocket 4.2 22:24:03 19° SSW 22:28:34 69° WNW 22:34:48 10° N
Cosmos 773 Rocket 4.5 22:23:59 10° NNW 22:29:03 53° NE 22:32:08 23° ESE
MOS 1-B Rocket 3.8 22:27:15 10° NNE 22:33:02 83° WNW 22:36:38 23° SSW
Cosmos 1908 Rocket 3.9 22:33:08 37° SSE 22:34:27 52° E 22:38:43 10° NNE
Terra 3.9 22:31:16 10° SW 22:34:32 18° W 22:37:48 10° NW
Cosmos 1707 4.3 22:32:42 10° N 22:36:08 28° ENE 22:37:45 21° ESE
Cosmos 1378 Rocket 3.8 22:32:48 10° NNW 22:37:14 63° W 22:38:54 36° SSW
SL-27 R/B 4.2 22:34:57 10° WSW 22:37:49 28° NW 22:40:46 10° N
Cosmos 1544 3.7 22:38:18 38° ESE 22:38:50 41° E 22:42:19 10° NNE
Cosmos 968 Rocket 3.7 22:38:31 35° SSE 22:40:21 52° ESE 22:45:21 10° NE
Cosmos 2227 Rocket 4.3 22:38:55 11° ESE 22:40:33 12° E 22:42:39 10° ENE
SL-16 R/B 4.3 22:37:41 10° WNW 22:40:46 15° W 22:43:51 10° SW
BREEZE-M DEB (TANK) 4.4 22:37:24 10° W 22:41:52 43° S 22:57:37 10° SE
Helios 1A 3.4 22:41:02 33° SE 22:42:41 56° ENE 22:46:50 10° N
Cosmos 1842 3.3 22:40:05 10° N 22:44:03 71° ENE 22:45:08 45° SE
Cosmos 2233 Rocket 4.0 22:42:20 27° SSW 22:46:03 87° WNW 22:52:26 10° NNE
Cosmos 2219 Rocket 2.4 22:41:16 10° NW 22:46:51 57° WSW 22:49:17 32° S
Cosmos 2322 4.3 22:42:14 10° NW 22:47:34 43° WSW 22:49:51 29° SSW
Cosmos 2344 4.2 22:38:59 10° NW 22:47:43 87° NE 22:59:48 10° SE
USA 267 3.2 22:41:21 10° ENE 22:47:56 88° SSE 22:54:31 10° WSW
Cosmos 1464 Rocket 4.4 22:48:06 28° SSE 22:51:05 49° E 22:57:01 10° NNE
Cosmos 1975 3.3 22:51:13 40° SE 22:52:07 48° E 22:56:02 10° NNE
EO 1 Del DPAF 3.2 22:49:20 10° NNE 22:53:07 79° WNW 22:54:13 44° SSW
Cosmos 1833 4.1 22:50:24 24° SSW 22:53:56 87° ESE 22:59:40 10° NE
Cosmos 1975 Rocket 3.1 22:50:10 10° N 22:54:42 78° ENE 22:56:17 40° SSE
Cosmos 2082 Rocket 4.4 22:52:34 10° W 22:57:15 26° NNW 23:01:58 10° NNE
Thor Agena Rocket 3.6 22:54:06 10° NNE 22:59:11 72° WNW 23:01:58 27° SSW
Lacrosse 4 Rocket 1.3 22:58:03 42° SSW 22:59:21 71° SE 23:03:32 10° NE
Meteor 1-21 4.2 22:54:11 10° NNW 23:00:03 87° ENE 23:02:50 33° SSE
NOSS 3-2 (A) 4.3 22:54:19 10° W 23:00:26 57° NNW 23:07:34 10° ENE
Cosmos 2322 Rocket 4.4 22:58:15 10° WNW 23:00:46 13° W 23:03:16 10° WSW
Nadezhda 4 Rocket 4.2 22:54:47 10° N 23:01:04 64° ENE 23:04:34 27° SSE
ERBS 3.1 23:01:07 10° WNW 23:03:27 36° WSW 23:03:27 36° WSW
Cosmos 1354 Rocket 4.4 23:03:08 35° SSE 23:05:02 51° ESE 23:10:12 10° NE
NOSS 3-2 (C) 4.0 23:02:07 10° WSW 23:08:13 64° NNW 23:15:22 10° ENE
SL-16 R/B 3.0 23:04:21 10° NNW 23:09:55 49° NE 23:15:16 11° ESE
Okean 2 Rocket 4.3 23:09:23 26° SE 23:10:49 32° E 23:14:50 10° NNE
COSMOS 2487 3.1 23:11:39 33° WSW 23:12:48 49° WNW 23:16:11 10° NNE
Cosmos 2360 Rocket 4.0 23:09:25 10° WNW 23:13:09 18° W 23:15:23 15° SW
Nimbus 7 Rocket 4.4 23:09:48 10° NNE 23:15:42 85° WNW 23:18:54 29° SSW
SL-24 DEB 4.3 23:11:32 10° N 23:16:21 82° W 23:18:11 38° SSW
Cosmos 44 Rocket 4.1 23:13:33 10° WNW 23:18:06 36° WSW 23:19:07 33° SSW
Cosmos 1092 Rocket 4.4 23:12:19 10° N 23:18:30 56° ENE 23:22:17 23° SE
Cosmos 2034 Rocket 4.3 23:18:30 29° SSE 23:21:37 58° E 23:27:49 10° NNE
Cosmos 1072 Rocket 4.4 23:20:42 32° S 23:23:43 81° E 23:29:51 10° NNE
YAOGAN 11 4.2 23:23:17 41° S 23:24:53 77° WSW 23:29:31 10° NNW
Sich 1 Rocket 3.7 23:24:22 41° SSE 23:25:41 60° E 23:30:02 10° NNE
Cosmos 1025 Rocket 3.2 23:21:29 10° N 23:25:45 65° ENE 23:27:16 37° SE
COSMOS 2428 3.5 23:20:55 10° NW 23:26:07 36° WSW 23:28:02 29° SSW
SJ 16-02 3.8 23:25:57 10° ESE 23:27:05 11° E 23:28:13 10° ENE
NOSS 0 Rocket 4.2 23:24:47 10° NW 23:30:49 52° WSW 23:33:28 32° S
Resurs 1-4 Rocket 4.3 23:28:09 10° NE 23:31:09 15° E 23:34:09 10° ESE
ALOS 2 3.9 23:30:35 25° WSW 23:31:52 29° W 23:35:43 10° NNW
Cosmos 1743 3.8 23:31:25 27° WSW 23:32:53 38° WNW 23:36:34 10° N
Cosmos 1980 3.8 23:27:23 10° NW 23:33:01 64° WSW 23:35:28 34° S
Cosmos 2297 Rocket 3.3 23:31:44 25° SE 23:33:41 31° ESE 23:38:35 10° NE
Meteor 2-9 Rocket 4.2 23:31:22 34° S 23:34:00 88° ESE 23:39:49 10° NNE
Helios 1B rocket 3.5 23:30:55 10° NNE 23:34:38 32° E 23:35:44 28° SE
DNEPR-1 R/B 4.1 23:30:21 10° NW 23:36:36 71° SW 23:39:12 30° SSE
SL-16 R/B 3.5 23:35:17 10° SE 23:41:10 45° ENE 23:47:03 10° N
Cosmos 2237 Rocket 2.3 23:36:12 10° NW 23:41:47 59° WSW 23:44:07 34° S
Cosmos 2219 3.9 23:39:48 29° SSE 23:41:50 39° ESE 23:47:01 10° NE
Cosmos 1503 Rocket 4.0 23:39:59 31° SSW 23:42:38 85° WNW 23:48:02 10° NNE
Cosmos 2151 Rocket 4.3 23:41:25 32° SE 23:42:53 44° E 23:47:04 10° NNE
ATLAS 3B R/B 2.8 23:36:32 10° WSW 23:43:08 75° NW 23:49:54 10° NE
PSLV R/B 4.0 23:39:51 10° NNE 23:44:29 59° ESE 23:46:13 36° SSE
Cosmos 2333 Rocket 3.6 23:40:02 10° NW 23:44:32 24° WSW 23:46:14 21° SW
In-Cosmos 22 4.1 23:40:29 10° NNW 23:46:09 88° E 23:48:50 32° SSE
Cosmos 923 Rocket 4.3 23:41:21 10° NNW 23:46:42 66° ENE 23:50:26 20° SE
Cosmos 1437 2.6 23:47:16 10° NNW 23:50:09 65° W 23:50:09 65° W
